User: anonymous   Login
Location: Unspecified
(0.0000°N, 0.0000°E)
Time: 19:19:05
(UTC+00:00)
Language:

COSMOS 2471 (GLONASS) - Orbit

View from above orbital plane
View from above orbital plane
View from above satellite
View from above satellite

Ground track
Ground track

The orbit data is extracted from the following two-line orbital elements,

1 37372U 11009A   18140.11884922 -.00000046  00000-0  00000+0 0  9992
2 37372  65.5649  53.2563 0007717 242.9174  41.0334  2.13107637 56224
Epoch (UTC): 20 May 2018 02:51:08
Eccentricity: 0.0007717
inclination: 65.5649°
perigee height: 19109 km
apogee height: 19149 km
right ascension of ascending node: 53.2563°
argument of perigee: 242.9174°
revolutions per day: 2.13107637
mean anomaly at epoch: 41.0334°
orbit number at epoch: 5622

The dashed part of the orbit path shows where the satellite is in the earth's shadow,  

DLR